Location: Moscow
(55.7500°N, 37.5830°E)
Time: 21:47:37
(UTC+03:00)

A-11 Canister half - Pass Details

Date: 01 December 2021
Orbit: 1516 x 1684 km, 47.2° (Epoch: 16 January)

Event Time Altitude Azimuth Distance (km) Brightness Sun altitude
Rises 13:33:08 0° 278° (W) 4,892 11.8 10.8°
Reaches altitude 10° 13:36:33 10° 271° (W) 3,920 11.4 10.6°
Maximum altitude 13:45:27 38° 209° (SSW) 2,383 11.3 10.2°
Drops below altitude 10° 13:54:26 10° 146° (SSE) 3,939 11.7 9.8°
Sets 13:57:53 0° 139° (SE) 4,918 12.0 9.6°
